Time,TemperatureF,DewpointF,PressureIn,WindDirection,WindDirectionDegrees,WindSpeedMPH,WindSpeedGustMPH,Humidity,HourlyPrecipIn,Conditions,Clouds,dailyrainin,SoftwareType,DateUTC
2013-01-29 00:03:00,67.5,59.7,29.77,SE,135,5.8,19.7,76,0.00,,,0.00,WUHU216HW,2013-01-29 06:03:00,
2013-01-29 00:08:00,67.3,59.5,29.77,SE,135,4.3,12.1,76,0.00,,,0.00,WUHU216HW,2013-01-29 06:08:00,
2013-01-29 00:13:00,67.3,59.9,29.76,South,180,6.3,13.0,77,0.00,,,0.00,WUHU216HW,2013-01-29 06:13:00,
2013-01-29 00:18:00,67.3,59.9,29.76,SSE,158,12.1,13.0,77,0.00,,,0.00,WUHU216HW,2013-01-29 06:18:00,
2013-01-29 00:23:00,67.1,59.7,29.77,South,180,6.9,17.2,77,0.00,,,0.00,WUHU216HW,2013-01-29 06:23:00,
2013-01-29 00:28:00,67.1,59.7,29.76,SSE,158,4.7,17.2,77,0.00,,,0.00,WUHU216HW,2013-01-29 06:28:00,
2013-01-29 00:33:00,67.1,59.7,29.76,SSW,203,10.1,11.4,77,0.00,,,0.00,WUHU216HW,2013-01-29 06:33:00,
2013-01-29 00:38:00,67.1,59.7,29.76,SSW,203,11.4,11.4,77,0.00,,,0.00,WUHU216HW,2013-01-29 06:38:00,
2013-01-29 00:43:00,67.1,59.7,29.75,SSW,203,3.8,12.8,77,0.00,,,0.00,WUHU216HW,2013-01-29 06:43:00,
2013-01-29 00:48:00,67.1,59.7,29.76,WSW,248,12.8,12.8,77,0.00,,,0.00,WUHU216HW,2013-01-29 06:48:00,
2013-01-29 00:53:00,67.1,59.7,29.75,South,180,10.5,12.8,77,0.00,,,0.00,WUHU216HW,2013-01-29 06:53:00,
2013-01-29 00:58:00,67.1,59.7,29.75,SSW,203,6.0,12.8,77,0.00,,,0.00,WUHU216HW,2013-01-29 06:58:00,
2013-01-29 01:03:00,67.3,59.9,29.77,SSW,203,8.7,11.6,77,0.00,,,0.00,WUHU216HW,2013-01-29 07:03:00,
2013-01-29 01:08:00,67.1,60.1,29.75,South,180,3.4,10.7,78,0.01,,,0.01,WUHU216HW,2013-01-29 07:08:00,
2013-01-29 01:13:00,67.0,60.0,29.75,SSW,203,4.0,8.7,78,0.01,,,0.01,WUHU216HW,2013-01-29 07:13:00,
2013-01-29 01:18:00,66.8,59.8,29.74,SSW,203,6.7,6.7,78,0.01,,,0.01,WUHU216HW,2013-01-29 07:18:00,
2013-01-29 01:23:00,66.6,60.0,29.74,SW,225,5.6,6.7,79,0.01,,,0.01,WUHU216HW,2013-01-29 07:23:00,
2013-01-29 01:28:00,66.6,60.0,29.74,SW,225,6.0,7.2,79,0.01,,,0.01,WUHU216HW,2013-01-29 07:28:00,
2013-01-29 01:33:00,66.8,60.1,29.74,South,180,8.7,13.2,79,0.01,,,0.01,WUHU216HW,2013-01-29 07:33:00,
2013-01-29 01:38:00,67.0,60.3,29.74,South,180,3.4,13.2,79,0.01,,,0.01,WUHU216HW,2013-01-29 07:38:00,
2013-01-29 01:43:00,67.0,60.3,29.73,South,180,7.4,10.5,79,0.01,,,0.01,WUHU216HW,2013-01-29 07:43:00,
2013-01-29 01:48:00,67.0,60.0,29.73,SSE,158,10.7,10.7,78,0.01,,,0.01,WUHU216HW,2013-01-29 07:48:00,
2013-01-29 01:53:00,67.1,60.1,29.73,SSW,203,11.4,13.0,78,0.01,,,0.01,WUHU216HW,2013-01-29 07:53:00,
2013-01-29 01:58:00,67.1,60.1,29.73,South,180,8.3,13.0,78,0.01,,,0.01,WUHU216HW,2013-01-29 07:58:00,
2013-01-29 02:03:00,67.1,60.1,29.73,SW,225,8.5,11.6,78,0.01,,,0.01,WUHU216HW,2013-01-29 08:03:00,
2013-01-29 02:08:00,67.1,60.1,29.73,SSW,203,6.0,12.1,78,0.00,,,0.01,WUHU216HW,2013-01-29 08:08:00,
2013-01-29 02:13:00,67.1,60.1,29.73,SW,225,7.8,14.1,78,0.01,,,0.02,WUHU216HW,2013-01-29 08:13:00,
2013-01-29 02:18:00,67.1,60.1,29.73,SSW,203,8.7,17.2,78,0.01,,,0.02,WUHU216HW,2013-01-29 08:18:00,
2013-01-29 02:23:00,67.3,59.9,29.73,SW,225,11.2,17.2,77,0.01,,,0.02,WUHU216HW,2013-01-29 08:23:00,
2013-01-29 02:28:00,67.3,60.3,29.73,SSW,203,9.6,16.3,78,0.01,,,0.02,WUHU216HW,2013-01-29 08:28:00,
2013-01-29 02:33:00,67.3,59.9,29.72,SSW,203,6.9,16.3,77,0.01,,,0.02,WUHU216HW,2013-01-29 08:33:00,
2013-01-29 02:38:00,67.3,59.9,29.73,SW,225,6.3,13.4,77,0.01,,,0.02,WUHU216HW,2013-01-29 08:38:00,
2013-01-29 02:43:00,67.1,59.7,29.72,SSW,203,8.9,12.1,77,0.01,,,0.02,WUHU216HW,2013-01-29 08:43:00,
2013-01-29 02:48:00,67.1,59.7,29.72,SW,225,10.5,10.7,77,0.01,,,0.02,WUHU216HW,2013-01-29 08:48:00,
2013-01-29 02:53:00,67.0,59.5,29.73,SSW,203,10.1,12.1,77,0.01,,,0.02,WUHU216HW,2013-01-29 08:53:00,
2013-01-29 02:58:00,67.0,59.5,29.72,SSE,158,11.6,13.2,77,0.01,,,0.02,WUHU216HW,2013-01-29 08:58:00,
2013-01-29 03:03:00,67.0,59.5,29.72,WSW,248,9.2,14.5,77,0.01,,,0.02,WUHU216HW,2013-01-29 09:03:00,
2013-01-29 03:08:00,67.0,59.5,29.73,South,180,4.9,14.5,77,0.00,,,0.02,WUHU216HW,2013-01-29 09:08:00,
2013-01-29 03:13:00,67.0,59.5,29.73,WSW,248,7.8,13.9,77,0.00,,,0.02,WUHU216HW,2013-01-29 09:13:00,
2013-01-29 03:18:00,67.0,59.5,29.73,WSW,248,10.1,13.9,77,0.00,,,0.02,WUHU216HW,2013-01-29 09:18:00,
2013-01-29 03:23:00,66.8,59.3,29.73,SSW,203,12.8,13.9,77,0.00,,,0.02,WUHU216HW,2013-01-29 09:23:00,
2013-01-29 03:28:00,66.8,59.8,29.73,SSW,203,7.8,13.9,78,0.00,,,0.02,WUHU216HW,2013-01-29 09:28:00,
2013-01-29 03:33:00,66.8,59.3,29.73,SW,225,7.8,13.0,77,0.00,,,0.02,WUHU216HW,2013-01-29 09:33:00,
2013-01-29 03:38:00,66.6,59.6,29.72,SSW,203,6.9,13.9,78,0.00,,,0.02,WUHU216HW,2013-01-29 09:38:00,
2013-01-29 03:43:00,66.6,59.6,29.72,South,180,6.5,13.9,78,0.00,,,0.02,WUHU216HW,2013-01-29 09:43:00,
2013-01-29 03:48:00,66.6,59.6,29.72,SE,135,4.0,13.4,78,0.00,,,0.02,WUHU216HW,2013-01-29 09:48:00,
2013-01-29 03:53:00,66.6,59.6,29.72,ESE,113,5.4,11.2,78,0.00,,,0.02,WUHU216HW,2013-01-29 09:53:00,
2013-01-29 03:58:00,66.4,59.4,29.72,SW,225,7.2,15.0,78,0.00,,,0.02,WUHU216HW,2013-01-29 09:58:00,
2013-01-29 04:03:00,66.4,59.4,29.72,SW,225,5.6,15.0,78,0.00,,,0.02,WUHU216HW,2013-01-29 10:03:00,
2013-01-29 04:08:00,66.2,59.2,29.72,SSW,203,6.3,13.9,78,0.00,,,0.02,WUHU216HW,2013-01-29 10:08:00,
2013-01-29 04:13:00,66.2,59.2,29.71,South,180,9.8,14.1,78,0.00,,,0.02,WUHU216HW,2013-01-29 10:13:00,
2013-01-29 04:18:00,66.1,59.1,29.71,SSE,158,5.4,14.1,78,0.00,,,0.02,WUHU216HW,2013-01-29 10:18:00,
2013-01-29 04:23:00,66.1,59.1,29.71,SSW,203,6.0,12.1,78,0.00,,,0.02,WUHU216HW,2013-01-29 10:23:00,
2013-01-29 04:28:00,66.1,59.1,29.71,SSW,203,6.9,13.4,78,0.00,,,0.02,WUHU216HW,2013-01-29 10:28:00,
2013-01-29 04:33:00,66.1,59.1,29.71,SSW,203,11.4,15.7,78,0.00,,,0.02,WUHU216HW,2013-01-29 10:33:00,
2013-01-29 04:38:00,65.9,58.9,29.71,SSW,203,6.9,15.7,78,0.00,,,0.02,WUHU216HW,2013-01-29 10:38:00,
2013-01-29 04:43:00,65.9,58.9,29.71,South,180,3.4,13.9,78,0.00,,,0.02,WUHU216HW,2013-01-29 10:43:00,
2013-01-29 04:48:00,65.9,58.9,29.71,SSW,203,8.7,16.8,78,0.00,,,0.02,WUHU216HW,2013-01-29 10:48:00,
2013-01-29 04:53:00,65.9,58.9,29.71,SE,135,8.9,16.8,78,0.00,,,0.02,WUHU216HW,2013-01-29 10:53:00,
2013-01-29 04:58:00,65.7,58.7,29.71,SW,225,9.6,11.9,78,0.00,,,0.02,WUHU216HW,2013-01-29 10:58:00,
2013-01-29 05:03:00,65.5,58.5,29.71,South,180,3.4,12.1,78,0.00,,,0.02,WUHU216HW,2013-01-29 11:03:00,
2013-01-29 05:08:00,65.3,58.3,29.71,SSE,158,9.8,12.1,78,0.00,,,0.02,WUHU216HW,2013-01-29 11:08:00,
2013-01-29 05:13:00,65.3,58.7,29.71,SSW,203,7.2,13.2,79,0.00,,,0.02,WUHU216HW,2013-01-29 11:13:00,
2013-01-29 05:18:00,65.3,58.7,29.71,WSW,248,7.6,13.2,79,0.00,,,0.02,WUHU216HW,2013-01-29 11:18:00,
2013-01-29 05:23:00,65.2,58.5,29.71,WSW,248,4.7,12.3,79,0.00,,,0.02,WUHU216HW,2013-01-29 11:23:00,
2013-01-29 05:28:00,65.2,58.5,29.71,SSW,203,8.5,12.3,79,0.00,,,0.02,WUHU216HW,2013-01-29 11:28:00,
2013-01-29 05:33:00,65.2,58.5,29.71,South,180,4.0,11.4,79,0.00,,,0.02,WUHU216HW,2013-01-29 11:33:00,
2013-01-29 05:38:00,65.0,58.3,29.71,SW,225,10.3,12.8,79,0.00,,,0.02,WUHU216HW,2013-01-29 11:38:00,
2013-01-29 05:43:00,65.0,58.3,29.71,SW,225,4.5,12.8,79,0.00,,,0.02,WUHU216HW,2013-01-29 11:43:00,
2013-01-29 05:48:00,64.8,58.2,29.71,South,180,6.3,10.5,79,0.00,,,0.02,WUHU216HW,2013-01-29 11:48:00,
2013-01-29 05:53:00,64.8,58.2,29.70,WSW,248,4.9,13.0,79,0.00,,,0.02,WUHU216HW,2013-01-29 11:53:00,
2013-01-29 05:58:00,64.6,58.0,29.69,West,270,6.9,13.0,79,0.00,,,0.02,WUHU216HW,2013-01-29 11:58:00,
2013-01-29 06:03:00,64.4,57.8,29.69,SSE,158,4.7,10.3,79,0.00,,,0.02,WUHU216HW,2013-01-29 12:03:00,
2013-01-29 06:08:00,64.4,58.1,29.69,SSW,203,4.7,9.4,80,0.00,,,0.02,WUHU216HW,2013-01-29 12:08:00,
2013-01-29 06:13:00,64.3,58.0,29.69,SSW,203,2.2,9.4,80,0.00,,,0.02,WUHU216HW,2013-01-29 12:13:00,
2013-01-29 06:18:00,64.1,57.8,29.70,SSW,203,3.6,7.6,80,0.00,,,0.02,WUHU216HW,2013-01-29 12:18:00,
2013-01-29 06:23:00,64.1,57.8,29.70,SW,225,6.9,12.5,80,0.00,,,0.02,WUHU216HW,2013-01-29 12:23:00,
2013-01-29 06:28:00,63.9,57.2,29.70,ESE,113,6.9,12.5,79,0.00,,,0.02,WUHU216HW,2013-01-29 12:28:00,
2013-01-29 06:33:00,63.9,57.2,29.70,West,270,5.1,10.5,79,0.00,,,0.02,WUHU216HW,2013-01-29 12:33:00,
2013-01-29 06:38:00,63.7,57.1,29.70,SSE,158,4.7,8.3,79,0.00,,,0.02,WUHU216HW,2013-01-29 12:38:00,
2013-01-29 06:43:00,63.7,57.1,29.69,SSW,203,3.1,8.7,79,0.00,,,0.02,WUHU216HW,2013-01-29 12:43:00,
2013-01-29 06:48:00,63.7,57.1,29.69,SW,225,6.7,9.2,79,0.00,,,0.02,WUHU216HW,2013-01-29 12:48:00,
2013-01-29 06:53:00,63.5,56.9,29.69,SSE,158,5.4,9.2,79,0.00,,,0.02,WUHU216HW,2013-01-29 12:53:00,
2013-01-29 06:58:00,63.5,56.9,29.68,WSW,248,5.1,7.8,79,0.00,,,0.02,WUHU216HW,2013-01-29 12:58:00,
2013-01-29 07:03:00,63.5,56.9,29.68,SSW,203,3.6,7.6,79,0.00,,,0.02,WUHU216HW,2013-01-29 13:03:00,
2013-01-29 07:08:00,63.4,56.7,29.67,South,180,6.9,6.9,79,0.00,,,0.02,WUHU216HW,2013-01-29 13:08:00,
2013-01-29 07:13:00,63.4,56.7,29.67,South,180,3.4,6.9,79,0.00,,,0.02,WUHU216HW,2013-01-29 13:13:00,
2013-01-29 07:18:00,63.4,56.7,29.67,SE,135,8.5,8.5,79,0.00,,,0.02,WUHU216HW,2013-01-29 13:18:00,
2013-01-29 07:23:00,63.2,56.9,29.67,SSW,203,2.5,8.5,80,0.00,,,0.02,WUHU216HW,2013-01-29 13:23:00,
2013-01-29 07:24:00,63.2,56.9,29.67,South,180,4.0,4.0,80,0.00,,,0.02,WUHU216HW,2013-01-29 13:24:00,
2013-01-29 07:28:00,63.2,56.9,29.67,South,180,4.0,8.5,80,0.00,,,0.02,WUHU216HW,2013-01-29 13:28:00,
2013-01-29 07:33:00,63.2,56.9,29.67,South,180,4.0,4.5,80,0.00,,,0.02,WUHU216HW,2013-01-29 13:33:00,
2013-01-29 10:00:00,47.9,43.3,29.72,NW,315,1.1,1.1,84,0.06,,,0.02,WUHU216HW,2013-01-29 16:00:00,
2013-01-29 10:05:00,47.9,43.3,29.72,NW,315,1.1,1.1,84,0.06,,,0.02,WUHU216HW,2013-01-29 16:05:00,
2013-01-29 13:00:00,45.7,42.8,29.61,NNE,23,2.7,2.7,89,0.00,,,0.15,WUHU216HW,2013-01-29 19:00:00,
2013-01-29 13:05:00,45.7,42.8,29.60,ENE,68,4.9,4.9,89,0.00,,,0.19,WUHU216HW,2013-01-29 19:05:00,
2013-01-29 13:10:00,45.9,42.9,29.60,NNE,23,2.7,6.0,89,0.00,,,0.19,WUHU216HW,2013-01-29 19:10:00,
2013-01-29 13:15:00,45.9,42.9,29.60,SW,225,2.5,6.0,89,0.00,,,0.19,WUHU216HW,2013-01-29 19:15:00,
2013-01-29 13:20:00,45.9,42.9,29.61,North,0,1.8,4.9,89,0.00,,,0.19,WUHU216HW,2013-01-29 19:20:00,
2013-01-29 13:25:00,45.9,42.9,29.63,NNW,338,3.8,4.9,89,0.00,,,0.19,WUHU216HW,2013-01-29 19:25:00,
2013-01-29 13:30:00,46.1,43.1,29.64,NNW,338,1.1,4.3,89,0.00,,,0.19,WUHU216HW,2013-01-29 19:30:00,
2013-01-29 13:35:00,46.1,42.8,29.64,NNW,338,3.1,6.3,88,0.00,,,0.19,WUHU216HW,2013-01-29 19:35:00,
2013-01-29 13:40:00,46.3,43.3,29.63,NNW,338,3.4,6.3,89,0.00,,,0.19,WUHU216HW,2013-01-29 19:40:00,
2013-01-29 13:45:00,46.3,43.3,29.63,North,0,1.8,3.8,89,0.00,,,0.19,WUHU216HW,2013-01-29 19:45:00,
2013-01-29 13:50:00,46.1,43.1,29.59,SE,135,2.7,4.7,89,0.00,,,0.19,WUHU216HW,2013-01-29 19:50:00,
2013-01-29 13:55:00,46.1,43.1,29.58,ESE,113,2.5,6.3,89,0.00,,,0.19,WUHU216HW,2013-01-29 19:55:00,
2013-01-29 13:58:00,45.9,42.9,29.58,ENE,68,2.9,6.3,89,0.01,,,0.20,WUHU216HW,2013-01-29 19:58:00,
2013-01-29 14:03:00,45.9,42.9,29.58,North,0,1.1,4.0,89,0.01,,,0.20,WUHU216HW,2013-01-29 20:03:00,
2013-01-29 14:08:00,45.9,42.9,29.57,NNE,23,2.0,4.5,89,0.01,,,0.20,WUHU216HW,2013-01-29 20:08:00,
2013-01-29 14:13:00,45.9,42.9,29.58,ENE,68,1.1,4.5,89,0.01,,,0.20,WUHU216HW,2013-01-29 20:13:00,
2013-01-29 14:18:00,45.9,42.9,29.57,NE,45,1.8,4.0,89,0.01,,,0.20,WUHU216HW,2013-01-29 20:18:00,
2013-01-29 14:23:00,45.7,42.8,29.58,North,0,2.7,4.5,89,0.01,,,0.20,WUHU216HW,2013-01-29 20:23:00,
2013-01-29 14:28:00,45.7,42.8,29.59,NNW,338,2.5,4.7,89,0.01,,,0.20,WUHU216HW,2013-01-29 20:28:00,
2013-01-29 14:33:00,45.7,42.8,29.59,NW,315,4.5,4.9,89,0.01,,,0.20,WUHU216HW,2013-01-29 20:33:00,
2013-01-29 14:38:00,45.7,42.8,29.59,NNW,338,2.7,4.9,89,0.01,,,0.20,WUHU216HW,2013-01-29 20:38:00,
2013-01-29 14:43:00,45.5,42.6,29.58,North,0,5.8,8.1,89,0.02,,,0.21,WUHU216HW,2013-01-29 20:43:00,
2013-01-29 14:48:00,45.2,42.2,29.58,NNW,338,1.8,8.1,89,0.02,,,0.21,WUHU216HW,2013-01-29 20:48:00,
2013-01-29 14:53:00,44.8,41.9,29.58,NNW,338,1.6,7.6,89,0.02,,,0.21,WUHU216HW,2013-01-29 20:53:00,
2013-01-29 14:58:00,44.6,41.7,29.59,NW,315,2.2,6.0,89,0.01,,,0.21,WUHU216HW,2013-01-29 20:58:00,
2013-01-29 15:03:00,44.5,41.5,29.58,NNE,23,3.4,6.0,89,0.01,,,0.21,WUHU216HW,2013-01-29 21:03:00,
2013-01-29 15:08:00,44.3,41.3,29.60,West,270,3.4,4.9,89,0.01,,,0.21,WUHU216HW,2013-01-29 21:08:00,
2013-01-29 15:13:00,44.3,41.3,29.62,NW,315,2.2,7.4,89,0.01,,,0.21,WUHU216HW,2013-01-29 21:13:00,
2013-01-29 15:18:00,44.3,41.3,29.61,NW,315,4.0,7.4,89,0.01,,,0.21,WUHU216HW,2013-01-29 21:18:00,
2013-01-29 15:23:00,44.1,41.1,29.60,ENE,68,2.9,5.4,89,0.01,,,0.21,WUHU216HW,2013-01-29 21:23:00,
2013-01-29 15:28:00,43.9,41.0,29.63,NW,315,4.7,5.4,89,0.01,,,0.21,WUHU216HW,2013-01-29 21:28:00,
2013-01-29 15:33:00,43.7,40.8,29.63,WNW,293,2.0,6.9,89,0.01,,,0.21,WUHU216HW,2013-01-29 21:33:00,
2013-01-29 15:38:00,43.6,40.2,29.63,NNW,338,2.5,6.9,88,0.00,,,0.21,WUHU216HW,2013-01-29 21:38:00,
2013-01-29 15:43:00,43.0,39.4,29.63,NNW,338,4.9,5.8,87,0.00,,,0.21,WUHU216HW,2013-01-29 21:43:00,
2013-01-29 15:48:00,42.7,39.1,29.64,NNW,338,2.5,5.8,87,0.00,,,0.21,WUHU216HW,2013-01-29 21:48:00,
2013-01-29 15:53:00,42.1,38.5,29.64,ENE,68,4.9,6.9,87,0.00,,,0.21,WUHU216HW,2013-01-29 21:53:00,
2013-01-29 15:58:00,41.8,38.2,29.65,NW,315,2.5,6.9,87,0.00,,,0.21,WUHU216HW,2013-01-29 21:58:00,
2013-01-29 16:03:00,41.4,37.8,29.61,NW,315,4.0,5.8,87,0.00,,,0.21,WUHU216HW,2013-01-29 22:03:00,
2013-01-29 16:08:00,41.2,37.6,29.59,NNE,23,2.5,4.7,87,0.00,,,0.21,WUHU216HW,2013-01-29 22:08:00,
2013-01-29 16:13:00,40.7,37.1,29.58,NNW,338,4.9,7.4,87,0.00,,,0.21,WUHU216HW,2013-01-29 22:13:00,
2013-01-29 16:18:00,40.5,36.9,29.62,NW,315,3.6,7.4,87,0.00,,,0.21,WUHU216HW,2013-01-29 22:18:00,
2013-01-29 16:23:00,40.3,37.0,29.62,North,0,3.4,6.9,88,0.00,,,0.21,WUHU216HW,2013-01-29 22:23:00,
2013-01-29 16:28:00,40.1,36.8,29.63,North,0,2.2,6.9,88,0.00,,,0.21,WUHU216HW,2013-01-29 22:28:00,
2013-01-29 16:33:00,39.8,36.5,29.64,NNW,338,8.3,9.2,88,0.00,,,0.21,WUHU216HW,2013-01-29 22:33:00,
2013-01-29 16:38:00,39.4,36.2,29.64,North,0,7.8,11.2,88,0.00,,,0.21,WUHU216HW,2013-01-29 22:38:00,
2013-01-29 16:43:00,39.2,36.0,29.64,NNE,23,8.7,11.2,88,0.00,,,0.21,WUHU216HW,2013-01-29 22:43:00,
2013-01-29 16:48:00,39.1,35.8,29.63,North,0,7.6,8.7,88,0.00,,,0.21,WUHU216HW,2013-01-29 22:48:00,
2013-01-29 16:53:00,39.1,35.8,29.63,North,0,8.7,8.7,88,0.00,,,0.21,WUHU216HW,2013-01-29 22:53:00,
2013-01-29 16:58:00,38.9,35.7,29.63,NNW,338,2.5,8.7,88,0.00,,,0.21,WUHU216HW,2013-01-29 22:58:00,
2013-01-29 17:03:00,38.9,35.7,29.61,North,0,3.4,9.8,88,0.00,,,0.21,WUHU216HW,2013-01-29 23:03:00,
2013-01-29 17:08:00,38.7,35.5,29.61,North,0,5.1,10.7,88,0.00,,,0.21,WUHU216HW,2013-01-29 23:08:00,
2013-01-29 17:13:00,38.5,35.6,29.62,NNW,338,3.8,10.7,89,0.00,,,0.21,WUHU216HW,2013-01-29 23:13:00,
2013-01-29 17:18:00,38.5,35.6,29.64,NW,315,2.9,7.4,89,0.00,,,0.21,WUHU216HW,2013-01-29 23:18:00,
2013-01-29 17:23:00,38.7,35.7,29.66,North,0,3.8,7.4,89,0.00,,,0.21,WUHU216HW,2013-01-29 23:23:00,
2013-01-29 17:28:00,38.7,35.7,29.65,North,0,5.6,6.3,89,0.00,,,0.21,WUHU216HW,2013-01-29 23:28:00,
2013-01-29 17:33:00,38.5,35.6,29.66,North,0,1.6,6.5,89,0.00,,,0.21,WUHU216HW,2013-01-29 23:33:00,
2013-01-29 17:38:00,38.5,35.6,29.66,North,0,2.2,6.5,89,0.00,,,0.21,WUHU216HW,2013-01-29 23:38:00,
2013-01-29 17:43:00,38.5,35.6,29.65,NNE,23,3.1,6.3,89,0.00,,,0.21,WUHU216HW,2013-01-29 23:43:00,
2013-01-29 17:48:00,38.5,35.6,29.64,NNW,338,2.5,6.9,89,0.00,,,0.21,WUHU216HW,2013-01-29 23:48:00,
2013-01-29 17:53:00,38.5,35.6,29.65,North,0,3.8,6.9,89,0.00,,,0.21,WUHU216HW,2013-01-29 23:53:00,
2013-01-29 17:58:00,38.3,35.4,29.64,NNE,23,4.5,6.0,89,0.00,,,0.21,WUHU216HW,2013-01-29 23:58:00,
2013-01-29 18:03:00,38.3,35.4,29.62,North,0,3.6,8.1,89,0.00,,,0.21,WUHU216HW,2013-01-30 00:03:00,
2013-01-29 18:08:00,38.2,35.2,29.62,NW,315,3.8,8.1,89,0.00,,,0.21,WUHU216HW,2013-01-30 00:08:00,
2013-01-29 18:13:00,38.2,35.2,29.62,NNE,23,6.0,9.2,89,0.00,,,0.21,WUHU216HW,2013-01-30 00:13:00,
2013-01-29 18:18:00,38.0,35.0,29.64,North,0,4.7,9.2,89,0.00,,,0.21,WUHU216HW,2013-01-30 00:18:00,
2013-01-29 18:23:00,38.0,35.0,29.63,North,0,2.2,6.5,89,0.00,,,0.21,WUHU216HW,2013-01-30 00:23:00,
2013-01-29 18:28:00,37.8,34.8,29.63,ENE,68,4.0,7.2,89,0.00,,,0.21,WUHU216HW,2013-01-30 00:28:00,
2013-01-29 18:33:00,37.8,34.8,29.62,NNE,23,4.9,9.2,89,0.00,,,0.21,WUHU216HW,2013-01-30 00:33:00,
2013-01-29 18:38:00,37.8,34.8,29.63,NNW,338,4.7,9.2,89,0.00,,,0.21,WUHU216HW,2013-01-30 00:38:00,
2013-01-29 18:43:00,37.8,34.8,29.62,North,0,4.0,6.3,89,0.00,,,0.21,WUHU216HW,2013-01-30 00:43:00,
2013-01-29 18:48:00,37.8,34.8,29.64,North,0,1.6,5.4,89,0.00,,,0.21,WUHU216HW,2013-01-30 00:48:00,
2013-01-29 18:53:00,37.8,34.8,29.64,NNW,338,1.8,5.4,89,0.00,,,0.21,WUHU216HW,2013-01-30 00:53:00,
2013-01-29 18:58:00,37.8,34.8,29.64,NNW,338,1.8,4.0,89,0.00,,,0.21,WUHU216HW,2013-01-30 00:58:00,
2013-01-29 19:00:00,37.8,34.8,29.65,NNW,338,3.4,3.4,89,0.00,,,0.21,WUHU216HW,2013-01-30 01:00:00,
2013-01-29 19:03:00,37.8,34.8,29.65,NNW,338,3.4,3.4,89,0.00,,,0.21,WUHU216HW,2013-01-30 01:03:00,
2013-01-29 19:08:00,37.8,34.8,29.65,NNW,338,3.4,3.4,89,0.00,,,0.21,WUHU216HW,2013-01-30 01:08:00,
2013-01-29 20:00:00,37.8,35.1,29.65,NNE,23,3.1,3.1,90,0.00,,,0.21,WUHU216HW,2013-01-30 02:00:00,
2013-01-29 20:05:00,37.8,35.1,29.65,NNE,23,3.1,3.1,90,0.00,,,0.21,WUHU216HW,2013-01-30 02:05:00,
2013-01-29 21:00:00,37.3,34.3,29.63,North,0,2.5,2.5,89,0.00,,,0.21,WUHU216HW,2013-01-30 03:00:00,
2013-01-29 21:05:00,37.3,34.3,29.63,NW,315,2.0,4.7,89,0.00,,,0.21,WUHU216HW,2013-01-30 03:05:00,
2013-01-29 21:10:00,37.3,34.3,29.63,NW,315,2.9,4.7,89,0.00,,,0.21,WUHU216HW,2013-01-30 03:10:00,
2013-01-29 21:15:00,37.3,34.3,29.64,North,0,0.9,3.6,89,0.00,,,0.21,WUHU216HW,2013-01-30 03:15:00,
2013-01-29 21:20:00,37.3,34.3,29.63,NNE,23,1.3,3.4,89,0.00,,,0.21,WUHU216HW,2013-01-30 03:20:00,
2013-01-29 21:25:00,37.3,34.3,29.62,North,0,1.8,4.0,89,0.00,,,0.21,WUHU216HW,2013-01-30 03:25:00,
2013-01-29 21:30:00,37.3,34.3,29.63,North,0,2.7,4.3,89,0.00,,,0.21,WUHU216HW,2013-01-30 03:30:00,
2013-01-29 21:35:00,37.3,34.3,29.63,North,0,0.7,4.3,89,0.00,,,0.21,WUHU216HW,2013-01-30 03:35:00,
2013-01-29 21:40:00,37.3,34.3,29.64,North,0,2.2,3.6,89,0.00,,,0.21,WUHU216HW,2013-01-30 03:40:00,
2013-01-29 21:45:00,37.3,34.3,29.64,ENE,68,2.5,3.4,89,0.00,,,0.21,WUHU216HW,2013-01-30 03:45:00,
2013-01-29 21:50:00,37.4,34.7,29.64,NNW,338,1.3,3.4,90,0.00,,,0.21,WUHU216HW,2013-01-30 03:50:00,
2013-01-29 21:55:00,37.4,34.7,29.63,North,0,1.3,2.5,90,0.01,,,0.22,WUHU216HW,2013-01-30 03:55:00,
2013-01-29 22:00:00,37.4,34.7,29.62,NNE,23,0.9,2.0,90,0.01,,,0.22,WUHU216HW,2013-01-30 04:00:00,
2013-01-29 22:05:00,37.4,34.7,29.63,SE,135,0.4,3.6,90,0.02,,,0.23,WUHU216HW,2013-01-30 04:05:00,
2013-01-29 22:10:00,37.4,34.7,29.63,North,0,0.9,3.6,90,0.02,,,0.23,WUHU216HW,2013-01-30 04:10:00,
2013-01-29 22:15:00,37.4,34.7,29.62,NNW,338,2.0,3.1,90,0.02,,,0.23,WUHU216HW,2013-01-30 04:15:00,
2013-01-29 22:20:00,37.4,34.7,29.63,NW,315,1.8,4.0,90,0.02,,,0.23,WUHU216HW,2013-01-30 04:20:00,
2013-01-29 22:25:00,37.4,34.7,29.61,North,0,2.0,4.0,90,0.02,,,0.23,WUHU216HW,2013-01-30 04:25:00,
2013-01-29 22:30:00,37.4,34.5,29.60,North,0,2.0,3.6,89,0.02,,,0.23,WUHU216HW,2013-01-30 04:30:00,
2013-01-29 22:35:00,37.3,34.3,29.59,North,0,4.7,5.1,89,0.02,,,0.23,WUHU216HW,2013-01-30 04:35:00,
2013-01-29 22:40:00,37.1,34.1,29.58,ESE,113,2.9,5.1,89,0.02,,,0.23,WUHU216HW,2013-01-30 04:40:00,
2013-01-29 22:45:00,37.1,34.1,29.58,East,90,3.1,4.7,89,0.02,,,0.23,WUHU216HW,2013-01-30 04:45:00,
2013-01-29 22:50:00,37.1,34.1,29.57,NE,45,1.8,4.5,89,0.02,,,0.23,WUHU216HW,2013-01-30 04:50:00,
2013-01-29 22:55:00,37.1,34.1,29.55,NNE,23,4.9,4.9,89,0.01,,,0.23,WUHU216HW,2013-01-30 04:55:00,
2013-01-29 23:00:00,36.9,33.9,29.55,NNE,23,2.5,6.3,89,0.01,,,0.23,WUHU216HW,2013-01-30 05:00:00,
2013-01-29 23:01:00,36.9,33.9,29.55,NNE,23,2.5,6.3,89,0.01,,,0.23,WUHU216HW,2013-01-30 05:01:00,
2013-01-29 23:03:00,36.9,33.9,29.55,South,180,4.7,6.7,89,0.00,,,0.23,WUHU216HW,2013-01-30 05:03:00,
2013-01-29 23:08:00,36.7,33.8,29.56,NNE,23,6.3,6.7,89,0.00,,,0.23,WUHU216HW,2013-01-30 05:08:00,
2013-01-29 23:13:00,36.7,33.8,29.55,East,90,3.1,6.7,89,0.00,,,0.23,WUHU216HW,2013-01-30 05:13:00,
2013-01-29 23:18:00,36.7,33.8,29.55,NNE,23,2.5,6.5,89,0.00,,,0.23,WUHU216HW,2013-01-30 05:18:00,
2013-01-29 23:23:00,36.5,33.6,29.54,North,0,5.4,7.6,89,0.00,,,0.23,WUHU216HW,2013-01-30 05:23:00,
2013-01-29 23:28:00,36.5,33.6,29.60,West,270,6.7,10.1,89,0.00,,,0.23,WUHU216HW,2013-01-30 05:28:00,
2013-01-29 23:33:00,36.7,33.8,29.59,North,0,1.8,10.1,89,0.00,,,0.23,WUHU216HW,2013-01-30 05:33:00,
2013-01-29 23:38:00,36.7,33.8,29.58,ESE,113,1.1,6.7,89,0.00,,,0.23,WUHU216HW,2013-01-30 05:38:00,
2013-01-29 23:43:00,36.7,33.8,29.61,NW,315,4.0,4.0,89,0.00,,,0.23,WUHU216HW,2013-01-30 05:43:00,
2013-01-29 23:48:00,36.7,33.8,29.62,WSW,248,3.4,6.3,89,0.00,,,0.23,WUHU216HW,2013-01-30 05:48:00,
2013-01-29 23:53:00,36.9,33.9,29.62,NE,45,3.8,6.3,89,0.00,,,0.23,WUHU216HW,2013-01-30 05:53:00,
2013-01-29 23:58:00,36.9,33.9,29.62,NNW,338,2.5,4.7,89,0.00,,,0.23,WUHU216HW,2013-01-30 05:58:00,